Stündliche Wetter Holm

Heute, 21 Juni, Montag

Zeit Temperatur Niederschläge Wind Luftdruck Luftfeuchtigkeit
00:00 +20°C° 0.2 mm 2 m/S 743 mmHg 90%
01:00 +20°C° 0.2 mm 1 m/S 743 mmHg 92%
02:00 +20°C° 0 mm 1 m/S 743 mmHg 95%
03:00 +21°C° 0 mm 1 m/S 743 mmHg 95%
04:00 +21°C° 0 mm 1 m/S 743 mmHg 95%
05:00 +22°C° 0 mm 1 m/S 743 mmHg 95%
06:00 +23°C° 0 mm 1 m/S 743 mmHg 88%
07:00 +25°C° 0 mm 2 m/S 743 mmHg 81%
08:00 +26°C° 0 mm 2 m/S 743 mmHg 72%
09:00 +28°C° 0 mm 3 m/S 743 mmHg 64%
10:00 +29°C° 0 mm 3 m/S 743 mmHg 56%
11:00 +30°C° 0 mm 3 m/S 743 mmHg 48%
12:00 +31°C° 0 mm 3 m/S 743 mmHg 45%
13:00 +33°C° 0 mm 3 m/S 743 mmHg 42%
14:00 +33°C° 0 mm 3 m/S 743 mmHg 39%
15:00 +33°C° 0 mm 3 m/S 743 mmHg 41%
16:00 +31°C° 0 mm 3 m/S 742 mmHg 43%
17:00 +31°C° 0 mm 3 m/S 742 mmHg 45%
18:00 +29°C° 0 mm 2 m/S 742 mmHg 54%
19:00 +26°C° 0 mm 2 m/S 742 mmHg 63%
20:00 +24°C° 0 mm 2 m/S 742 mmHg 72%
21:00 +23°C° 0 mm 2 m/S 742 mmHg 71%
22:00 +22°C° 0 mm 1 m/S 742 mmHg 69%
23:00 +21°C° 0 mm 1 m/S 742 mmHg 68%

Morgen, 22 Juni, Dienstag

Zeit Temperatur Niederschläge Wind Luftdruck Luftfeuchtigkeit
00:00 +21°C° 0 mm 1 m/S 742 mmHg 72%
01:00 +19°C° 0 mm 2 m/S 742 mmHg 76%
02:00 +19°C° 0 mm 2 m/S 742 mmHg 80%
03:00 +19°C° 0 mm 2 m/S 742 mmHg 82%
04:00 +20°C° 0 mm 2 m/S 742 mmHg 85%
05:00 +20°C° 0 mm 2 m/S 742 mmHg 87%
06:00 +22°C° 0 mm 3 m/S 742 mmHg 80%
07:00 +25°C° 0 mm 3 m/S 742 mmHg 72%
08:00 +27°C° 0 mm 4 m/S 742 mmHg 65%
09:00 +28°C° 0 mm 4 m/S 742 mmHg 59%
10:00 +29°C° 0 mm 4 m/S 742 mmHg 52%
11:00 +30°C° 0 mm 5 m/S 742 mmHg 46%
12:00 +32°C° 0 mm 5 m/S 742 mmHg 43%
13:00 +33°C° 0 mm 5 m/S 742 mmHg 40%
14:00 +33°C° 0 mm 5 m/S 742 mmHg 38%
15:00 +33°C° 0 mm 5 m/S 742 mmHg 40%
16:00 +33°C° 0 mm 4 m/S 742 mmHg 43%
17:00 +32°C° 0 mm 4 m/S 742 mmHg 46%
18:00 +29°C° 0 mm 3 m/S 742 mmHg 54%
19:00 +28°C° 0 mm 3 m/S 742 mmHg 62%
20:00 +26°C° 0 mm 3 m/S 742 mmHg 70%
21:00 +25°C° 0 mm 2 m/S 742 mmHg 74%
22:00 +23°C° 0 mm 2 m/S 742 mmHg 78%
23:00 +21°C° 0 mm 2 m/S 742 mmHg 81%

übermorgen, 23 Juni, Mittwoch

Zeit Temperatur Niederschläge Wind Luftdruck Luftfeuchtigkeit
00:00 +21°C° 0 mm 2 m/S 742 mmHg 83%
01:00 +20°C° 0 mm 2 m/S 742 mmHg 85%
02:00 +20°C° 0 mm 2 m/S 742 mmHg 87%
03:00 +20°C° 0 mm 2 m/S 743 mmHg 87%
04:00 +20°C° 0 mm 2 m/S 743 mmHg 86%
05:00 +20°C° 0 mm 2 m/S 743 mmHg 86%
06:00 +23°C° 0 mm 2 m/S 743 mmHg 78%
07:00 +25°C° 0 mm 3 m/S 743 mmHg 69%
08:00 +27°C° 0 mm 3 m/S 743 mmHg 61%
09:00 +29°C° 0 mm 3 m/S 743 mmHg 54%
10:00 +30°C° 0 mm 4 m/S 743 mmHg 46%
11:00 +32°C° 0 mm 4 m/S 743 mmHg 39%
12:00 +33°C° 0 mm 4 m/S 743 mmHg 38%
13:00 +33°C° 0 mm 4 m/S 743 mmHg 37%
14:00 +34°C° 0 mm 4 m/S 743 mmHg 36%
15:00 +34°C° 0 mm 4 m/S 743 mmHg 39%
16:00 +34°C° 0 mm 3 m/S 743 mmHg 42%
17:00 +33°C° 0 mm 3 m/S 743 mmHg 45%
18:00 +30°C° 0 mm 3 m/S 743 mmHg 55%
19:00 +28°C° 0 mm 2 m/S 743 mmHg 64%
20:00 +26°C° 0 mm 2 m/S 743 mmHg 74%
21:00 +25°C° 0 mm 2 m/S 743 mmHg 76%
22:00 +24°C° 0 mm 2 m/S 743 mmHg 79%
23:00 +23°C° 0 mm 2 m/S 743 mmHg 81%

24 Juni, Donnerstag

Zeit Temperatur Niederschläge Wind Luftdruck Luftfeuchtigkeit
00:00 +23°C° 0 mm 2 m/S 743 mmHg 84%
01:00 +23°C° 0 mm 2 m/S 743 mmHg 87%
02:00 +21°C° 0 mm 2 m/S 743 mmHg 90%
03:00 +23°C° 0 mm 2 m/S 743 mmHg 89%
04:00 +23°C° 0 mm 2 m/S 743 mmHg 89%
05:00 +23°C° 0 mm 2 m/S 743 mmHg 88%
06:00 +25°C° 0 mm 2 m/S 743 mmHg 80%
07:00 +27°C° 0 mm 2 m/S 743 mmHg 71%
08:00 +29°C° 0 mm 2 m/S 743 mmHg 63%
09:00 +30°C° 0 mm 2 m/S 743 mmHg 56%
10:00 +33°C° 0 mm 3 m/S 743 mmHg 50%
11:00 +34°C° 0 mm 3 m/S 743 mmHg 44%
12:00 +35°C° 0 mm 3 m/S 743 mmHg 41%
13:00 +35°C° 0 mm 3 m/S 743 mmHg 37%
14:00 +36°C° 0 mm 3 m/S 742 mmHg 34%
15:00 +35°C° 0 mm 3 m/S 742 mmHg 38%
16:00 +34°C° 0 mm 3 m/S 742 mmHg 42%
17:00 +33°C° 0 mm 3 m/S 741 mmHg 45%
18:00 +30°C° 0.3 mm 3 m/S 741 mmHg 56%
19:00 +27°C° 0.3 mm 3 m/S 741 mmHg 66%
20:00 +25°C° 0.3 mm 3 m/S 741 mmHg 76%
21:00 +24°C° 0.8 mm 3 m/S 741 mmHg 83%
22:00 +21°C° 0.8 mm 3 m/S 742 mmHg 90%
23:00 +19°C° 0.8 mm 4 m/S 742 mmHg 97%

25 Juni, Freitag

Zeit Temperatur Niederschläge Wind Luftdruck Luftfeuchtigkeit
00:00 +19°C° 0.1 mm 3 m/S 741 mmHg 97%
01:00 +19°C° 0.1 mm 2 m/S 741 mmHg 97%
02:00 +20°C° 0.1 mm 1 m/S 741 mmHg 97%
03:00 +18°C° 0 mm 0 m/S 741 mmHg 96%
04:00 +18°C° 0 mm 0 m/S 741 mmHg 96%
05:00 +18°C° 0 mm 0 m/S 741 mmHg 95%
06:00 +19°C° 0 mm 0 m/S 741 mmHg 91%
07:00 +20°C° 0 mm 0 m/S 741 mmHg 88%
08:00 +23°C° 0 mm 1 m/S 741 mmHg 84%
09:00 +23°C° 0 mm 0 m/S 741 mmHg 76%
10:00 +25°C° 0 mm 0 m/S 741 mmHg 69%
11:00 +26°C° 0 mm 0 m/S 741 mmHg 61%
12:00 +28°C° 0.5 mm 1 m/S 741 mmHg 66%
13:00 +27°C° 0.5 mm 1 m/S 741 mmHg 70%
14:00 +27°C° 0.5 mm 2 m/S 741 mmHg 74%
15:00 +27°C° 0.1 mm 2 m/S 740 mmHg 72%
16:00 +27°C° 0.1 mm 1 m/S 740 mmHg 70%
17:00 +27°C° 0.1 mm 1 m/S 740 mmHg 67%
18:00 +26°C° 0.2 mm 1 m/S 740 mmHg 74%
19:00 +25°C° 0.2 mm 1 m/S 739 mmHg 80%
20:00 +24°C° 0.2 mm 1 m/S 739 mmHg 86%
21:00 +23°C° 0.1 mm 1 m/S 739 mmHg 89%
22:00 +22°C° 0.1 mm 1 m/S 739 mmHg 92%
23:00 +20°C° 0.1 mm 1 m/S 739 mmHg 94%

26 Juni, Samstag

Zeit Temperatur Niederschläge Wind Luftdruck Luftfeuchtigkeit
00:00 +20°C° 0 mm 1 m/S 739 mmHg 95%
01:00 +20°C° 0 mm 1 m/S 739 mmHg 95%
02:00 +17°C° 0 mm 0 m/S 739 mmHg 95%
03:00 +20°C° 0 mm 1 m/S 739 mmHg 94%
04:00 +20°C° 0 mm 1 m/S 739 mmHg 94%
05:00 +20°C° 0 mm 1 m/S 739 mmHg 94%
06:00 +22°C° 0 mm 1 m/S 739 mmHg 87%
07:00 +23°C° 0 mm 1 m/S 739 mmHg 79%
08:00 +25°C° 0 mm 1 m/S 739 mmHg 72%
09:00 +27°C° 0 mm 1 m/S 740 mmHg 66%
10:00 +28°C° 0 mm 1 m/S 740 mmHg 60%
11:00 +30°C° 0 mm 1 m/S 740 mmHg 53%
12:00 +30°C° 0 mm 1 m/S 740 mmHg 51%
13:00 +31°C° 0 mm 1 m/S 740 mmHg 48%
14:00 +32°C° 0 mm 1 m/S 739 mmHg 46%
15:00 +31°C° 0 mm 1 m/S 739 mmHg 51%
16:00 +30°C° 0 mm 1 m/S 739 mmHg 55%
17:00 +29°C° 0 mm 1 m/S 739 mmHg 60%
18:00 +27°C° 0.2 mm 1 m/S 739 mmHg 67%
19:00 +26°C° 0.2 mm 1 m/S 739 mmHg 73%
20:00 +25°C° 0.2 mm 1 m/S 739 mmHg 80%
21:00 +24°C° 0.7 mm 1 m/S 739 mmHg 84%
22:00 +22°C° 0.7 mm 1 m/S 740 mmHg 88%
23:00 +21°C° 0.7 mm 1 m/S 740 mmHg 92%
Mehr zeigen

Wir brauchen deine Erlaubnis

Meteoprog und unser Service Anbieter werden persönliche Daten aufbewahren, so wie Cookies, Geräte Bezeichnung oder ähnliche Technologien von deinem Gerät und Prozess, so wie Persönliche Daten Inhalte und Werbungen, genauso wie social Media und den Verkehr zu analysieren.

  • Aufbewahrung und/oder Zugang zu deiner Geräte Informationen.

    Cookies, Geräte Bezeichnung oder andere Informationen, können aufbewahrt oder Zugang zu deinem Gerät erhalten, für den Grund, der oben angegeben wird.

  • Personalisierte Werbung und Inhalte, Messungen, Einblick in das Publikum und Produkt Entwicklung.

    Werbungen und Inhalte können personalisiert werden, basierend auf ein Profil. Mehr Daten können besser personalisierte Werbungen und Inhalte hinzufügen. Werbung und Inhalte können gezeigt und gemessen werden. Einblicke über das Publikum, welche die Werbung gesehen haben und den Inhalt, können abgeleitet werden. So wie Daten können genutzt werden, um es zu verbessern oder die Benutzer Erfahrung zu verbessern das System und die Software.

Wenn du “Ich stimme zu” klickst, erlaubst du uns, die Cookies zu benutzen die Geräte Bezeichnung, den Web oder ähnliche Technologien zu benutzen. Deine Settings, können in deinem Gerät bei deinem Browser geändert werden.

Für den bestimmten Zweck, berechtigten Interessen beruhen darauf, mehr als auf den Inhalt. Du kannst mehr darüber in unseren Privaten und Cookie Politik lesen.